THOR ABLESTAR DEB, 470

Orbit data source: Space-Track

THOR ABLESTAR DEB, 470 is space debris in LEO originally from a launch on Thu, 29 Jun 1961 UTC launched from the Air Force Eastern Test Range (AFETR). Debris objects in space refer to the collection of defunct objects orbiting the Earth. Examples of debris include non-operational satellites, rocket bodies, and fragments generated from explosions, collisions, or faulty payload assembly.

Loading next visibility...
Identifier
470, 1961-015FG
Orbit
LEO
Country
Flag of USUS
Related business
Manufacturer
Unknown
Mission
Spacecraft
Bus & Motor
Unknown
Mass
Unknown
Launch date (UTC)
1961-06-29 (64 years ago)
Launch vehicle
Unknown
Launch site
Air Force Eastern Test Range (AFETR)
Object type
Payload
Rocket body
Debris
Shape & HBR
Unknown shape, 0.2 m
Radar Cross Section
Small (<0.1 m²)

Expand to show TLE details & history
Last TLE update: 1 day ago

TLE from 1 day ago
0 THOR ABLESTAR DEB
1 00470U 61015FG  25348.43504662  .00001330  00000-0  80265-3 0  9997
2 00470  66.2315  29.2415 0057899  76.8756 283.8780 14.09043470286369
Epoch: 2025-12-14T10:26Z
TLE epoch observation values (Epoch: 2025-12-14T10:26:28.027Z)
Latitude
-0.00006°
Longitude
149.27669°
Altitude
854.869 km
Speed
7.431 km/s
True Right ascension
01h 56m 57s
True Declination
0° 00' 00"
Sunlit
Object was in full shadow at epoch
Visualization orbit readout
Latitude
Unknown
Longitude
Unknown
Altitude
Unknown
Speed
Unknown
Apparent Right ascension
Unknown
Apparent Declination
Unknown
Sunlit
N/A
Visualization observer readout
Local Sidereal Time
13:22:42
Azimuth
Unknown
Elevation
Unknown
Doppler factor
Unknown
Orbital elements
Apogee altitude
903.007 km
Perigee altitude
819.178 km
Semi-major axis
7,239.229 km
Eccentricity
0.00579
Inclination
66.2315°
RAAN
29.2415°
Arg. of periapsis
76.8756°
True anomaly
283.23279°
Mean anomaly
283.878°
Eccentric anomaly
283.5555°
Mean motion
3.52375 °/min
Orbital period
102.16 mins
BSTAR
0.00080265
Loading maneuver chart data...
Computing Atmospheric mass density...
Loading historical data...
Loading historical data...
Loading historical data...
Loading historical data...
Loading historical data...
Loading historical data...
Loading historical data...

Documentation

Showing up to 5 results
|